ATLAS 2A CENTAUR R/B

基本信息
目录编号:
25502
目录名称:
ATLAS 2A CENTAUR R/B
国际标识:
1998-058B
轨道中心:
EARTH
物体状态:
在轨
发射日期:
1998-10-20 UTC
国别:
美国 (US)
轨道信息
数据来源: 国际轨道数据
星历时间: 2026-07-13T23:35:59+0800
半长轴: 15321.409km
偏心率: 0.5666066
轨道倾角: 26.959°
近地点辐角: 99.036°
升交点赤经: 199.328°
平近点角: 325.772°
近地点: 262.06km
远地点: 17624.484km
周期: 314.563分钟
每日圈数: 4.577778
详细信息
发射场:
AFETR
轨道高度:
LEO
数据来源:
AOE Integration Group
参考系:
TEME
时间系统:
UTC
历元类型:
SGP4
2D轨道图
3D轨道图
轨道高度分析图
轨道倾角分析图
轨道综合分析图
查看轨道综合分析图